Mackinac Island, MI

3:15 PM EDT on August 27, 2016 (GMT -0400)
Mackinac Island

Weather History for KMCD - May, 2013

Change the Weather History Date:

Friday, May 24, 2013

  Actual Average Record
Temperature  
Mean Temperature 43 °F -  
Max Temperature 50 °F 56 °F 81 °F (2012)
Min Temperature 36 °F 41 °F 35 °F (2002)
Degree Days  
Heating Degree Days 22    
Moisture  
Dew Point 32 °F    
Average Humidity 65    
Maximum Humidity 89    
Minimum Humidity 44    
Precipitation  
Precipitation 0.00 in - - ()
Sea Level Pressure  
Sea Level Pressure 30.34 in    
Wind  
Wind Speed 9 mph (NNW)    
Max Wind Speed 14 mph    
Max Gust Speed 20 mph    
Visibility 10 miles    
Events      
Averages and records for this station are not official NWS values.
T = Trace of Precipitation, MM = Missing Value Source: NWS Daily Summary

Daily Weather History Graph

Daily Weather History Graph

Search for Another Location

Airport or City:

Trip Planner

Search our weather history database for the weather conditions in past years. The results will help you decide how hot, cold, wet, or windy it might be!

Date:

Astronomy

May. 24, 2013 Rise Set
Actual Time 5:57 AM EDT 9:14 PM EDT
Civil Twilight 5:21 AM EDT 9:50 PM EDT
Nautical Twilight 4:33 AM EDT 10:37 PM EDT
Astronomical Twilight 3:35 AM EDT 11:37 PM EDT
Moon 8:53 PM EDT (5/24) 5:31 AM EDT (5/24)
Length of Visible Light 16h 29m
Length of Day
15h 16m
Full, 100% of the Moon is Illuminated
May 24
Full
May 25
Full
May 31
Last Quarter
Jun 8
New
Jun 16
First Quarter

Hourly Weather History & Observations

Time (EDT) Temp. Windchill Dew Point Humidity Pressure Visibility Wind Dir Wind Speed Gust Speed Precip Events Conditions
12:14 AM 41.4 °F 35.7 °F 32.0 °F 69% 30.25 in 10.0 mi North 9.2 mph - N/A   Clear
12:34 AM 40.5 °F 35.1 °F 32.2 °F 72% 30.26 in 10.0 mi North 8.1 mph - N/A   Clear
12:55 AM 40.3 °F 34.9 °F 32.2 °F 73% 30.26 in 10.0 mi North 8.1 mph - N/A   Clear
1:14 AM 40.5 °F 34.6 °F 31.1 °F 69% 30.27 in 10.0 mi NNE 9.2 mph - N/A   Clear
1:34 AM 40.1 °F 33.6 °F 30.6 °F 69% 30.27 in 10.0 mi NNE 10.4 mph 17.3 mph N/A   Clear
1:55 AM 39.6 °F 32.5 °F 29.8 °F 68% 30.27 in 10.0 mi NNE 11.5 mph 16.1 mph N/A   Clear
2:14 AM 39.2 °F 31.6 °F 28.8 °F 66% 30.27 in 10.0 mi NNE 12.7 mph 18.4 mph N/A   Clear
2:34 AM 38.7 °F 30.9 °F 28.9 °F 68% 30.27 in 10.0 mi NNE 12.7 mph 18.4 mph N/A   Clear
2:54 AM 38.5 °F 30.3 °F 28.2 °F 67% 30.27 in 10.0 mi NNE 13.8 mph 19.6 mph N/A   Clear
3:14 AM 38.3 °F 30.1 °F 28.2 °F 67% 30.28 in 10.0 mi NNE 13.8 mph - N/A   Clear
3:35 AM 38.3 °F 30.5 °F 27.9 °F 66% 30.28 in 10.0 mi NNE 12.7 mph - N/A   Clear
3:54 AM 38.1 °F 30.7 °F 28.0 °F 67% 30.29 in 10.0 mi NNE 11.5 mph - N/A   Clear
4:14 AM 37.9 °F 30.5 °F 27.9 °F 67% 30.30 in 10.0 mi NNE 11.5 mph - N/A   Clear
4:35 AM 37.8 °F 31.8 °F 28.2 °F 68% 30.30 in 10.0 mi NNE 8.1 mph - N/A   Clear
4:54 AM 37.4 °F 32.8 °F 28.4 °F 70% 30.31 in 10.0 mi North 5.8 mph - N/A   Clear
5:14 AM 36.7 °F 31.2 °F 28.8 °F 73% 30.31 in 10.0 mi North 6.9 mph - N/A   Clear
5:35 AM 36.7 °F 30.5 °F 28.8 °F 73% 30.32 in 10.0 mi North 8.1 mph - N/A   Clear
5:54 AM 37.4 °F 32.1 °F 28.9 °F 71% 30.33 in 10.0 mi North 6.9 mph - N/A   Clear
6:14 AM 37.6 °F 32.3 °F 28.9 °F 71% 30.33 in 10.0 mi North 6.9 mph - N/A   Clear
6:35 AM 38.3 °F 32.5 °F 29.1 °F 70% 30.33 in 10.0 mi North 8.1 mph - N/A   Clear
6:54 AM 39.0 °F 34.0 °F 29.3 °F 68% 30.34 in 10.0 mi NNE 6.9 mph - N/A   Clear
7:14 AM 39.4 °F 33.8 °F 30.0 °F 69% 30.35 in 10.0 mi North 8.1 mph - N/A   Clear
7:35 AM 39.7 °F 34.9 °F 29.5 °F 67% 30.36 in 10.0 mi NNE 6.9 mph - N/A   Clear
7:54 AM 40.5 °F 34.1 °F 29.8 °F 66% 30.36 in 10.0 mi NNE 10.4 mph - N/A   Clear
8:14 AM 41.7 °F 35.6 °F 28.6 °F 60% 30.38 in 10.0 mi NNE 10.4 mph - N/A   Clear
8:35 AM 41.9 °F 36.9 °F 27.9 °F 58% 30.38 in 10.0 mi North 8.1 mph - N/A   Clear
8:54 AM 42.4 °F 37.0 °F 28.0 °F 57% 30.38 in 10.0 mi North 9.2 mph - N/A   Clear
9:14 AM 42.8 °F 38.0 °F 28.4 °F 57% 30.38 in 10.0 mi North 8.1 mph - N/A   Clear
9:35 AM 43.5 °F 37.5 °F 28.6 °F 56% 30.39 in 10.0 mi NNE 11.5 mph - N/A   Clear
9:54 AM 44.8 °F 40.4 °F 28.8 °F 53% 30.39 in 10.0 mi NNE 8.1 mph - N/A   Clear
10:14 AM 45.7 °F 40.6 °F 28.8 °F 52% 30.39 in 10.0 mi NNE 10.4 mph - N/A   Clear
10:35 AM 46.0 °F 41.4 °F 28.8 °F 51% 30.39 in 10.0 mi NE 9.2 mph - N/A   Clear
10:54 AM 46.4 °F 42.9 °F 28.6 °F 50% 30.38 in 10.0 mi NNE 6.9 mph - N/A   Clear
11:14 AM 46.9 °F - 28.9 °F 50% 30.37 in 10.0 mi North 5.8 mph - N/A   Clear
11:35 AM 46.9 °F - 28.0 °F 48% 30.37 in 10.0 mi NNE 4.6 mph - N/A   Clear
11:54 AM 47.7 °F - 29.1 °F 49% 30.37 in 10.0 mi NNE 8.1 mph - N/A   Clear
12:14 PM 49.1 °F - 29.3 °F 46% 30.37 in 10.0 mi North 9.2 mph - N/A   Clear
12:35 PM 49.1 °F - 28.2 °F 44% 30.37 in 10.0 mi North 10.4 mph - N/A   Clear
12:54 PM 50.0 °F - 28.9 °F 44% 30.37 in 10.0 mi North 10.4 mph 16.1 mph N/A   Clear
1:14 PM 50.4 °F - 28.9 °F 44% 30.37 in 10.0 mi WNW 5.8 mph - N/A   Clear
1:35 PM 47.8 °F - 32.9 °F 56% 30.37 in 10.0 mi WSW 10.4 mph - N/A   Clear
1:54 PM 47.3 °F - 33.3 °F 58% 30.37 in 10.0 mi WSW 8.1 mph - N/A   Clear
2:14 PM 47.7 °F - 33.4 °F 58% 30.37 in 10.0 mi WSW 11.5 mph - N/A   Clear
2:35 PM 48.2 °F - 35.2 °F 61% 30.38 in 10.0 mi WSW 9.2 mph - N/A   Clear
2:54 PM 48.6 °F - 34.2 °F 58% 30.37 in 10.0 mi WSW 13.8 mph - N/A   Clear
3:14 PM 48.7 °F - 32.7 °F 54% 30.36 in 10.0 mi WSW 11.5 mph - N/A   Clear
3:35 PM 50.4 °F - 34.5 °F 55% 30.35 in 10.0 mi WSW 5.8 mph - N/A   Clear
3:54 PM 50.4 °F - 34.3 °F 54% 30.35 in 10.0 mi WSW 8.1 mph 19.6 mph N/A   Clear
4:14 PM 50.9 °F - 35.6 °F 56% 30.35 in 10.0 mi WSW 5.8 mph - N/A   Clear
4:35 PM 50.2 °F - 34.7 °F 55% 30.35 in 10.0 mi West 11.5 mph 16.1 mph N/A   Clear
4:54 PM 50.0 °F - 35.1 °F 57% 30.35 in 10.0 mi WSW 8.1 mph - N/A   Clear
5:15 PM 50.0 °F - 36.0 °F 59% 30.35 in 10.0 mi WSW 8.1 mph - N/A   Clear
5:34 PM 49.5 °F - 35.4 °F 58% 30.34 in 10.0 mi WSW 4.6 mph - N/A   Clear
5:54 PM 49.3 °F - 36.7 °F 62% 30.33 in 10.0 mi SW 8.1 mph - N/A   Clear
6:15 PM 49.1 °F - 37.0 °F 63% 30.33 in 10.0 mi WSW 5.8 mph - N/A   Clear
6:34 PM 48.9 °F - 37.6 °F 65% 30.33 in 10.0 mi SW 6.9 mph - N/A   Clear
6:54 PM 48.7 °F - 38.1 °F 67% 30.33 in 10.0 mi WSW 5.8 mph - N/A   Clear
7:15 PM 48.2 °F - 38.8 °F 70% 30.32 in 10.0 mi WSW 6.9 mph - N/A   Clear
7:34 PM 48.4 °F - 38.5 °F 69% 30.32 in 10.0 mi WSW 5.8 mph - N/A   Clear
7:54 PM 47.7 °F - 38.5 °F 70% 30.32 in 10.0 mi West 5.8 mph - N/A   Clear
8:15 PM 46.8 °F - 38.8 °F 74% 30.32 in 10.0 mi West 5.8 mph - N/A   Clear
8:34 PM 46.0 °F 43.1 °F 39.6 °F 78% 30.32 in 10.0 mi West 5.8 mph - N/A   Clear
8:54 PM 45.9 °F - 39.7 °F 79% 30.32 in 10.0 mi Calm Calm - N/A   Clear
9:15 PM 44.8 °F 42.4 °F 39.9 °F 83% 30.32 in 10.0 mi WSW 4.6 mph - N/A   Clear
9:34 PM 43.5 °F - 39.7 °F 87% 30.33 in 10.0 mi Calm Calm - N/A   Clear
9:54 PM 43.0 °F - 39.0 °F 86% 30.33 in 10.0 mi Calm Calm - N/A   Clear
10:15 PM 41.5 °F 38.6 °F 38.7 °F 89% 30.33 in 10.0 mi North 4.6 mph - N/A   Clear
10:34 PM 41.7 °F 38.8 °F 37.2 °F 84% 30.34 in 10.0 mi NNW 4.6 mph - N/A   Clear
10:54 PM 43.0 °F 38.8 °F 34.9 °F 73% 30.35 in 10.0 mi NW 6.9 mph - N/A   Clear
11:15 PM 43.0 °F - 33.8 °F 70% 30.35 in 10.0 mi Calm Calm - N/A   Clear
11:34 PM 39.9 °F 36.7 °F 35.1 °F 83% 30.35 in 10.0 mi NW 4.6 mph - N/A   Clear
11:54 PM 40.3 °F 37.1 °F 35.1 °F 82% 30.34 in 10.0 mi NNW 4.6 mph - N/A   Clear